Flag for U.S.A. Weather past 2 weeks in Appleton, Wisconsin, U.S.A.

46 °F


Feels Like: 42 °F
Forecast: 41 / 64 °F
Wind: 8 mph from Southwest

Location: Appleton / Outagamie

Current Time: Oct 10, 2015 at 2:15:00 AM

Latest Report: Oct 10, 2015 at 1:55 AM

Visibility: 10 mi

Pressure: 30.19 "Hg

Humidity: 82%

Dew point: 41 °F

Location of AppletonLocation

Historic Weather in Appleton — Graph


Appleton temperature yesterday

Maximum temperature yesterday: 59 °F (at 2:45 PM)
Minimum temperature yesterday: 45 °F (at 11:15 PM)
Average temperature yesterday: 51 °F

Past Weeks' High & Low Weather Summary

High79 °F (Sep 28, 2:45 PM)100% (Sep 25, 5:45 AM)30.50 "Hg (Sep 25, 5:45 AM)
Low37 °F (Sep 30, 2:35 AM)39% (Sep 29, 3:45 PM)29.43 "Hg (Oct 1, 9:45 AM)
Average54 °F80%30.19 "Hg
* Reported Sep 25 1:15 AM — Oct 10 1:15 AM, Appleton, Weather by CustomWeather, © 2015

Note: Actual official high and low records may vary slightly from our data, if they occured in-between our weather recording intervals... More about our weather records


Appleton weather history for previous 24 hours

Time TempWeatherWind HumidityBarometerVisibility
1:15 AM
Sat, Oct 10
45 °FClear.7 mph93%30.19 "Hg10 mi
12:55 AM46 °FClear.7 mph87%30.20 "Hg10 mi
12:35 AM45 °FClear.7 mph93%30.20 "Hg10 mi
12:15 AM46 °FClear.8 mph87%30.20 "Hg10 mi
11:55 PM
Fri, Oct 9
46 °FClear.8 mph87%30.20 "Hg10 mi
11:35 PM45 °FClear.8 mph87%30.20 "Hg10 mi
11:15 PM45 °FClear.8 mph87%30.20 "Hg10 mi
10:45 PM46 °FPassing clouds.7 mph76%30.19 "Hg10 mi
9:45 PM46 °FPassing clouds.6 mph76%30.20 "Hg10 mi
8:45 PM48 °FPassing clouds.6 mph66%30.20 "Hg10 mi
7:45 PM48 °FPassing clouds.6 mph66%30.19 "Hg10 mi
5:45 PM55 °FScattered clouds.6 mph55%30.18 "Hg10 mi
4:45 PM57 °FPartly sunny.9 mph48%30.18 "Hg10 mi
3:45 PM59 °FPartly sunny.13 mph45%30.17 "Hg10 mi
2:45 PM59 °FPartly sunny.8 mph45%30.17 "Hg10 mi
1:45 PM55 °FPartly sunny.9 mph51%30.19 "Hg10 mi
12:45 PM55 °FPartly sunny.15 mph55%30.19 "Hg10 mi
11:45 AM55 °FPartly sunny.15 mph55%30.19 "Hg10 mi
10:45 AM55 °FPartly sunny.14 mph55%30.18 "Hg10 mi
9:45 AM54 °FPartly sunny.12 mph67%30.16 "Hg10 mi
8:45 AM50 °FPartly sunny.9 mph76%30.15 "Hg10 mi
7:45 AM46 °FPartly cloudy.8 mph87%30.12 "Hg10 mi
6:45 AM50 °FPassing clouds.10 mph76%30.09 "Hg10 mi
5:45 AM50 °FOvercast.10 mph82%30.06 "Hg10 mi
5:15 AM50 °FOvercast.9 mph82%30.04 "Hg10 mi
4:55 AM50 °FOvercast.10 mph82%30.04 "Hg10 mi
4:35 AM50 °FOvercast.12 mph76%30.03 "Hg10 mi
4:15 AM50 °FOvercast.13 mph76%30.02 "Hg10 mi
3:55 AM50 °FMostly cloudy.10 mph76%30.01 "Hg10 mi
3:35 AM50 °FOvercast.10 mph82%30.01 "Hg10 mi
3:15 AM50 °FPassing clouds.10 mph82%30.01 "Hg10 mi
2:55 AM46 °FPassing clouds.9 mph93%30.00 "Hg10 mi
2:35 AM48 °FPassing clouds.7 mph82%30.00 "Hg10 mi
2:15 AM48 °FPassing clouds.7 mph82%30.00 "Hg10 mi
Weather by CustomWeather, © 2015

See weather overviewHow to use our weather pages